Location: Salillas
(41.9950°N, 0.2228°W)
Time: 08:52:57
(UTC+00:00)

SL-08 RB Rocket - Pass Details

Date: 29 March 2020
Orbit: 646 x 685 km, 97.8° (Epoch: 04 June)

Event Time Altitude Azimuth Distance (km) Brightness Sun altitude
Exits shadow 19:40:47 15° 151° (SSE) 1,730 5.4 -14.8°
Maximum altitude 19:44:22 60° 74° (ENE) 754 3.7 -15.4°
Drops below altitude 10° 19:48:52 10° 355° (N) 2,092 6.6 -16.2°
Sets 19:51:08 0° 352° (N) 3,016 7.5 -16.6°
